Location: ????????
(38.4362°N, 22.8767°E)
Time: 04:01:02
(UTC+00:00)

FENGYUN 1C DEB - Pass Details

Date: 14 October 2025
Orbit: 841 x 1273 km, 99.2° (Epoch: 16 November)

Event Time Altitude Azimuth Distance (km) Brightness Sun altitude
Rises 02:33:53 0° 22° (NNE) 3,405 ? -24.7°
Reaches altitude 10° 02:36:22 10° 29° (NNE) 2,465 ? -24.3°
Maximum altitude 02:41:27 41° 100° (E) 1,216 ? -23.3°
Drops below altitude 10° 02:46:42 10° 170° (S) 2,550 ? -22.2°
Sets 02:49:18 0° 177° (S) 3,534 ? -21.7°
